Location: Antioch Baptist Church
(32.6696°N, 85.7327°W)
Time: 20:45:15
(UTC+00:00)

Okean 2 - Pass Details

Date: 14 July 2020
Orbit: 559 x 578 km, 82.5° (Epoch: 13 August)

Event Time Altitude Azimuth Distance (km) Brightness Sun altitude
Rises 09:00:10 0° 359° (N) 2,752 7.5 -19.1°
Reaches altitude 10° 09:02:23 10° 4° (N) 1,851 6.6 -18.8°
Maximum altitude 09:06:22 53° 82° (E) 687 4.0 -18.1°
Drops below altitude 10° 09:10:20 10° 160° (SSE) 1,838 5.8 -17.5°
Enters shadow 09:10:46 - 161° (SSE) 2,011 6.0 -17.4°
